[[{"header":{"parameterUnit":"m.s-1","parameterCategory":1,"la1":30.2991,"la2":30.254,"lo1":-89.0895,"lo2":-89.0444,"dy":0.0017,"dx":0.0017,"nx":28,"ny":28,"refTime":"2024-07-12T09:00:00:Z","depth":0,"parameterNumber":2,"parameterNumberName":"U-component_of_WINDS"},"data":[0,0,0,0,0,0,0,0,0,0,0,0,0,0,0,0,0,0,0,0,0,0,0,0,0,0,0,0,0,0,0,0,0,0,0,0,0,0,0,0,0,0,0,0,0,0,0,0,0,0,0,0,0,0,0,0,0,0,1.7223,1.7224,0,1.7366,1.7368,1.7369,1.7403,1.7402,1.7401,1.74,1.755,1.7554,1.7559,0,0,0,0,0,0,0,0,0,0,0,0,0,1.698,1.6984,1.7223,1.7224,1.7226,1.7366,1.7368,1.737,1.7403,1.7402,1.7401,1.74,1.7548,1.7554,1.756,0,0,0,0,0,0,0,0,0,0,0,0,0,1.71,1.6985,1.7222,1.726,1.7264,1.7365,1.7368,1.737,1.7403,1.7402,1.7401,1.7399,1.7546,1.7553,1.756,1.7635,0,0,1.7583,1.7586,0,0,0,0,0,0,0,0,1.7093,1.7109,1.7252,1.7257,1.7263,1.7365,1.7337,1.7459,1.7404,1.7351,1.74,1.7398,1.749,1.7501,1.7532,1.7642,1.7648,1.7583,1.7588,1.7591,1.7593,0,0,0,0,0,0,0,1.7085,1.7103,1.7279,1.7254,1.7261,1.727,1.7285,1.736,1.7427,1.7355,1.7358,1.7374,1.7492,1.7524,1.7535,1.7651,1.7583,1.759,1.7594,1.7597,1.7829,1.783,0,0,0,0,0,0,1.707,1.7096,1.7275,1.7284,1.7173,1.7275,1.7293,1.7334,1.7426,1.7439,1.7376,1.7375,1.7513,1.7527,1.7541,1.7633,1.7591,1.7598,1.7602,1.7827,1.7829,1.7831,0,0,0,0,0,0,1.7065,1.7086,1.7269,1.7191,1.7215,1.7281,1.7327,1.7337,1.737,1.7441,1.7454,1.7396,1.7512,1.753,1.7611,1.7639,1.7601,1.7608,1.7825,1.7828,1.783,1.7819,0,0,0,0,0,0,1.7057,1.7083,1.7112,1.7191,1.7219,1.7336,1.7329,1.7341,1.7382,1.7383,1.7464,1.7476,1.7512,1.76,1.7618,1.7648,1.7614,1.7823,1.7826,1.7829,1.7817,1.7821,1.7824,0,0,0,0,0,1.7049,1.7104,1.7113,1.7135,1.7256,1.7338,1.7354,1.7394,1.7384,1.7413,1.7459,1.7473,1.7633,1.7608,1.7629,1.7661,1.7821,1.7825,1.7829,1.7815,1.782,1.7824,0,0,0,0,0,0,1.7027,1.7115,1.7126,1.7209,1.7265,1.7343,1.7381,1.7397,1.7459,1.7457,1.7505,1.7523,1.76,1.764,1.761,1.7738,1.7727,1.7735,1.7709,1.7714,1.7718,1.7706,1.762,0,0,0,0,0,1.7032,1.709,1.7164,1.723,1.7258,1.7314,1.7352,1.7378,1.7439,1.7463,1.7515,1.7574,1.7638,1.7679,1.7741,1.7823,1.7841,1.7856,1.786,1.7862,1.7868,1.7914,1.7921,1.7844,1.7844,1.7844,0,0,1.7042,1.7097,1.7131,1.7227,1.7274,1.7333,1.7334,1.7398,1.7443,1.7473,1.7551,1.7592,1.7661,1.7742,1.7781,1.7777,1.7894,1.7867,1.7869,1.7874,1.7919,1.7926,1.7932,1.7847,1.7846,1.7846,0,0,1.7091,1.7139,1.7198,1.7245,1.7316,1.7354,1.7368,1.7444,1.7471,1.7551,1.7574,1.7629,1.7738,1.7786,1.7824,1.7891,1.7906,1.7911,1.7928,1.7972,1.7978,1.7984,1.8006,1.8014,1.7917,1.7917,1.7917,0,1.7095,1.7185,1.7227,1.7289,1.733,1.736,1.742,1.7464,1.7552,1.758,1.7574,1.771,1.7759,1.7852,1.7868,1.7899,1.7916,1.7901,1.7974,1.798,1.7986,1.8008,1.8016,1.7917,1.7917,1.7917,1.7917,0,1.7186,1.7249,1.7288,1.7371,1.7417,1.7478,1.7529,1.757,1.7593,1.7631,1.7711,1.7771,1.7845,1.787,1.7893,1.7965,1.7961,1.7964,1.7954,1.7992,1.8014,1.8023,1.7917,1.7917,1.7917,1.7917,0,0,1.7224,1.7329,1.7343,1.7381,1.7461,1.7511,1.7573,1.7645,1.7679,1.774,1.7793,1.7884,1.7887,1.7931,1.796,1.7998,1.8046,1.7997,1.7999,1.8003,1.8128,1.8124,1.8133,1.8057,1.8059,1.806,1.8122,0,1.7282,1.7393,1.7433,1.7525,1.7583,1.7612,1.7666,1.7722,1.7759,1.7814,1.7856,1.7919,1.792,1.7946,1.7986,1.8031,1.8071,1.8028,1.8106,1.8109,1.8086,1.8145,1.8141,1.8196,1.8131,1.8132,1.8134,0,1.7364,1.7423,1.7521,1.7594,1.7619,1.7667,1.7736,1.7789,1.7852,1.7877,1.7926,1.7952,1.8018,1.8005,1.8097,1.8066,1.8101,1.8128,1.8132,1.8139,1.8122,1.8153,1.8215,1.8223,1.8148,1.8146,1.8145,0,1.7379,1.7485,1.7557,1.7588,1.7675,1.7708,1.7746,1.7808,1.7849,1.791,1.7937,1.8005,1.8042,1.8094,1.8137,1.8124,1.8225,1.8216,1.8247,1.8246,1.8266,1.8264,1.8334,1.8291,1.8291,1.8291,1.8291,0,1.7439,1.7497,1.7565,1.7609,1.7675,1.772,1.7784,1.7824,1.7879,1.7932,1.7962,1.801,1.8066,1.8122,1.8157,1.8227,1.8244,1.8266,1.8274,1.8262,1.8259,1.8284,1.8281,1.8293,1.8293,1.8292,1.8292,0,1.7467,1.7515,1.7595,1.7671,1.7691,1.7736,1.7801,1.7845,1.7884,1.795,1.7968,1.803,1.8097,1.8146,1.8233,1.8257,1.8332,1.8341,1.831,1.8314,1.8342,1.8338,1.8429,1.8443,1.8392,1.8392,1.8393,0,1.75,1.7546,1.7626,1.7663,1.7701,1.776,1.7802,1.7849,1.789,1.7966,1.8001,1.807,1.8128,1.8234,1.8287,1.8353,1.8364,1.8391,1.8374,1.836,1.8362,1.8358,1.8363,1.8393,1.8393,1.8393,1.8394,0,1.7555,1.7576,1.7634,1.7701,1.775,1.7805,1.786,1.7889,1.7945,1.7991,1.806,1.8104,1.8193,1.8261,1.8333,1.8373,1.8392,1.8399,1.8409,1.8397,1.8376,1.8386,1.8315,1.8396,1.8396,1.8396,1.8396,1.8395,1.7586,1.7627,1.769,1.7754,1.7801,1.7852,1.7896,1.7941,1.7999,1.8074,1.8098,1.8169,1.8232,1.833,1.8371,1.8427,1.8426,1.8442,1.8446,1.8448,1.8447,1.8368,1.8441,1.8441,1.8441,1.8441,1.8441,0,1.764,1.7682,1.7741,1.7817,1.7867,1.7881,1.7944,1.7985,1.8046,1.8103,1.8159,1.8237,1.8304,1.8362,1.843,1.8464,1.8475,1.8481,1.8478,1.8487,1.8444,1.8428,1.8471,1.8471,1.8471,1.8471,1.8471,1.8471,1.7674,1.7745,1.7774,1.7867,1.7909,1.7978,1.8012,1.806,1.8105,1.8191,1.8246,1.8283,1.834,1.8414,1.8475,1.849,1.8514,1.8517,1.8534,1.8493,1.849,1.8486,1.847,1.8522,1.8522,1.8572,1.8572,1.8572]},{"header":{"parameterUnit":"m.s-1","parameterCategory":1,"la1":30.2991,"la2":30.254,"lo1":-89.0895,"lo2":-89.0444,"dy":0.0017,"dx":0.0017,"nx":28,"ny":28,"refTime":"2024-07-12T09:00:00:Z","depth":0,"parameterNumber":3,"parameterNumberName":"V-component_of_WINDS"},"data":[0,0,0,0,0,0,0,0,0,0,0,0,0,0,0,0,0,0,0,0,0,0,0,0,0,0,0,0,0,0,0,0,0,0,0,0,0,0,0,0,0,0,0,0,0,0,0,0,0,0,0,0,0,0,0,0,0,0,4.4656,4.4655,0,4.4606,4.4605,4.4605,4.4579,4.4579,4.4579,4.4579,4.452,4.4518,4.4517,0,0,0,0,0,0,0,0,0,0,0,0,0,4.4722,4.4721,4.4656,4.4655,4.4655,4.4606,4.4605,4.4605,4.4579,4.4579,4.4579,4.4579,4.452,4.4519,4.4517,0,0,0,0,0,0,0,0,0,0,0,0,0,4.4685,4.4721,4.4656,4.4636,4.4634,4.4606,4.4605,4.4604,4.4579,4.4579,4.4579,4.4579,4.4521,4.4519,4.4516,4.4503,0,0,4.4509,4.4508,0,0,0,0,0,0,0,0,4.4687,4.4682,4.464,4.4637,4.4635,4.4599,4.4607,4.457,4.4579,4.4599,4.4579,4.4579,4.4546,4.4541,4.4532,4.45,4.4497,4.4509,4.4508,4.4507,4.4506,0,0,0,0,0,0,0,4.469,4.4684,4.4636,4.4639,4.4636,4.4627,4.4622,4.46,4.4573,4.4598,4.4596,4.459,4.4544,4.4534,4.453,4.4497,4.4509,4.4507,4.4506,4.4505,4.4451,4.4451,0,0,0,0,0,0,4.4696,4.4687,4.4637,4.4634,4.4662,4.4626,4.462,4.461,4.4573,4.4568,4.459,4.4589,4.4538,4.4533,4.4528,4.451,4.4507,4.4505,4.4503,4.4451,4.4451,4.4451,0,0,0,0,0,0,4.4698,4.4692,4.4639,4.466,4.4653,4.4625,4.4614,4.4609,4.4599,4.4568,4.4562,4.4586,4.4538,4.4531,4.451,4.4507,4.4504,4.4501,4.4451,4.4451,4.4451,4.4473,0,0,0,0,0,0,4.47,4.4693,4.4689,4.466,4.4652,4.4624,4.4614,4.4608,4.4596,4.4594,4.4562,4.4556,4.4537,4.4513,4.4507,4.4504,4.45,4.4451,4.4451,4.4451,4.4472,4.4473,4.4474,0,0,0,0,0,4.4702,4.4695,4.4689,4.4683,4.4647,4.4624,4.4619,4.4599,4.4596,4.4591,4.4571,4.4557,4.4509,4.4511,4.4504,4.45,4.4451,4.4451,4.4451,4.4471,4.4473,4.4474,0,0,0,0,0,0,4.4722,4.4691,4.4684,4.4668,4.4649,4.462,4.4613,4.4602,4.4582,4.458,4.4555,4.4547,4.4528,4.4512,4.4516,4.4485,4.4478,4.4477,4.4496,4.4498,4.4499,4.4503,4.4498,0,0,0,0,0,4.4725,4.4711,4.4684,4.4673,4.4664,4.464,4.463,4.4617,4.4595,4.4586,4.4565,4.4542,4.4522,4.4509,4.4488,4.447,4.4461,4.4463,4.4464,4.4466,4.4464,4.4453,4.4453,4.445,4.445,4.445,0,0,4.473,4.4711,4.4704,4.4676,4.466,4.4645,4.4634,4.4618,4.4606,4.4583,4.4562,4.4546,4.4519,4.4499,4.4489,4.4484,4.4463,4.4465,4.4467,4.4465,4.4453,4.4453,4.4453,4.445,4.445,4.445,0,0,4.4731,4.4716,4.4705,4.469,4.4667,4.4651,4.4649,4.4621,4.461,4.459,4.4573,4.4556,4.4522,4.4504,4.449,4.4486,4.4472,4.4479,4.4485,4.4474,4.4475,4.4475,4.4473,4.4472,4.4478,4.4478,4.4478,0,4.4739,4.4718,4.47,4.4686,4.4674,4.4656,4.4643,4.4629,4.4599,4.459,4.4586,4.4543,4.4524,4.4499,4.4499,4.4488,4.4483,4.4483,4.4477,4.4476,4.4476,4.4474,4.4473,4.4479,4.4479,4.4479,4.4479,0,4.4729,4.4715,4.4708,4.4683,4.467,4.4657,4.4635,4.4624,4.4612,4.4596,4.4575,4.4551,4.4526,4.4519,4.4506,4.4492,4.449,4.4482,4.4475,4.4478,4.4475,4.4474,4.4481,4.448,4.448,4.448,0,0,4.4741,4.4708,4.4705,4.4694,4.4667,4.4655,4.464,4.4618,4.4608,4.4588,4.4574,4.4546,4.4539,4.4523,4.4508,4.4498,4.4496,4.4491,4.449,4.4492,4.4479,4.4485,4.4485,4.4487,4.4487,4.4487,4.4481,0,4.4738,4.4714,4.4698,4.4679,4.4664,4.4647,4.4634,4.4615,4.46,4.4584,4.4566,4.4547,4.4538,4.4529,4.4519,4.4499,4.4493,4.4499,4.4472,4.4471,4.4479,4.4483,4.449,4.4485,4.448,4.448,4.4479,0,4.4732,4.4716,4.4696,4.4672,4.4665,4.4654,4.4633,4.4618,4.4596,4.4585,4.4569,4.4554,4.4535,4.4531,4.4504,4.4509,4.4496,4.4485,4.4484,4.448,4.4475,4.4479,4.4483,4.4483,4.4478,4.4478,4.4478,0,4.4742,4.4715,4.47,4.469,4.4662,4.4654,4.4641,4.462,4.4607,4.4588,4.4579,4.4557,4.4544,4.4526,4.4504,4.4503,4.448,4.4473,4.4469,4.447,4.4464,4.4465,4.4467,4.4458,4.4458,4.4458,4.4458,0,4.4741,4.4729,4.4704,4.4695,4.4681,4.4662,4.4648,4.4633,4.4614,4.46,4.4583,4.4569,4.4542,4.4525,4.4507,4.4488,4.4482,4.4472,4.4467,4.4473,4.4474,4.4464,4.4464,4.4457,4.4457,4.4457,4.4457,0,4.4749,4.4732,4.4715,4.469,4.4683,4.4674,4.4652,4.4641,4.4626,4.4608,4.4602,4.4577,4.4556,4.4533,4.4503,4.4492,4.4473,4.4466,4.4481,4.4478,4.4475,4.4476,4.447,4.4468,4.4461,4.4461,4.4462,0,4.475,4.4741,4.4716,4.4707,4.4695,4.468,4.4668,4.4648,4.4636,4.4611,4.4603,4.4581,4.4563,4.4529,4.4506,4.4483,4.4476,4.4476,4.4472,4.4479,4.4475,4.4476,4.4475,4.4477,4.4477,4.4477,4.4477,0,4.4752,4.4744,4.4729,4.4711,4.4698,4.4683,4.4666,4.4659,4.4635,4.4622,4.4602,4.4588,4.4559,4.4537,4.4512,4.4495,4.4482,4.4479,4.4476,4.4482,4.4491,4.4486,4.4484,4.4479,4.4478,4.4478,4.4478,4.4478,4.4756,4.4747,4.4729,4.4713,4.4699,4.4684,4.4673,4.4657,4.464,4.4617,4.4606,4.4585,4.4562,4.4528,4.4512,4.4494,4.449,4.4487,4.4486,4.4485,4.4487,4.4495,4.4489,4.4489,4.4489,4.4489,4.4489,0,4.4756,4.4744,4.473,4.4708,4.4695,4.4687,4.4668,4.4657,4.464,4.4621,4.4604,4.4581,4.4559,4.4536,4.4512,4.4503,4.4496,4.4497,4.4497,4.4493,4.4492,4.4496,4.4503,4.4503,4.4503,4.4503,4.4503,4.4503,4.4755,4.4741,4.4731,4.4709,4.4696,4.4678,4.4668,4.4653,4.4638,4.4614,4.4597,4.4583,4.4561,4.4537,4.4516,4.451,4.4501,4.4505,4.4496,4.4495,4.4494,4.4492,4.4496,4.4503,4.4503,4.4499,4.4499,4.4499]}]]